Terug naar catalogus

FLOCK 4H 4

ActiefWetenschapSSO
NORAD 66707·PAYLOAD·🇺🇸 United States

Gelanceerd Nov 28, 2025 vanaf Vandenberg Space Force Base

Loading…

Volgende Passages (komende 24 uur)

TLE

VersSource: CelesTrak SupGP

Epoch: Sep 14, 2026, 14:44 UTC

1 66707C 25276AT  26257.61423611  .00008047  00000+0  36670-3 0  2574
2 66707  97.4154 329.7138 0005784  62.5615 280.3202 15.20716890    17

Volg FLOCK 4H 4 in realtime met AllMySat

Download on the App Store